Weather History for Pittsburgh Allegheny Co., PA

Change the Weather History Date:

Sunday, June 9, 2013

  Actual Average Record
Temperature  
Mean Temperature 71 °F -  
Max Temperature 82 °F 76 °F 90 °F (1999)
Min Temperature 60 °F 51 °F 39 °F (1975)
Cooling Degree Days 6    
Growing Degree Days 21 (Base 50)    
Moisture  
Dew Point 59 °F    
Average Humidity 66    
Maximum Humidity 86    
Minimum Humidity 44    
Precipitation  
Precipitation 0.00 in - - ()
Sea Level Pressure  
Sea Level Pressure 30.10 in    
Wind  
Wind Speed 4 mph (ESE)    
Max Wind Speed 8 mph    
Max Gust Speed 20 mph    
Visibility 9 miles    
Events      
Averages and records for this station are not official NWS values.
T = Trace of Precipitation, MM = Missing Value Source: NWS Daily Summary

Daily Weather History Graph

Daily Weather History Graph

Search for Another Location

Airport:

Trip Planner

Search our weather history database for the weather conditions in past years. The results will help you decide how hot, cold, wet, or windy it might be!

Date:

Astronomy

Jun. 09, 2013 Rise Set
Actual Time 5:49 AM EDT 8:48 PM EDT
Civil Twilight 5:16 AM EDT 9:21 PM EDT
Nautical Twilight 4:34 AM EDT 10:03 PM EDT
Astronomical Twilight 3:46 AM EDT 10:52 PM EDT
Moon 6:44 AM EDT (6/9) 9:34 PM EDT (6/9)
Length of Visible Light 16h 05m
Length of Day
14h 59m
New Moon, 1% of the Moon is Illuminated
Jun 9
New Moon
Jun 16
First Quarter
Jun 23
Full
Jun 30
Last Quarter
Jul 8
New

Hourly Weather History & Observations

Time (EDT) Temp. Heat Index Dew Point Humidity Pressure Visibility Wind Dir Wind Speed Gust Speed Precip Events Conditions
12:53 AM 61.0 °F - 55.9 °F 83% 30.14 in 8.0 mi SSE 4.6 mph - N/A   Partly Cloudy
1:53 AM 60.1 °F - 55.0 °F 83% 30.13 in 10.0 mi SE 3.5 mph - N/A   Clear
2:53 AM 60.1 °F - 55.9 °F 86% 30.12 in 8.0 mi SE 4.6 mph - N/A   Overcast
3:53 AM 62.1 °F - 55.0 °F 78% 30.13 in 9.0 mi Calm Calm - N/A   Overcast
4:53 AM 60.1 °F - 55.9 °F 86% 30.13 in 7.0 mi ENE 3.5 mph - N/A   Overcast
5:53 AM 60.1 °F - 55.9 °F 86% 30.14 in 6.0 mi SE 3.5 mph - N/A   Overcast
6:53 AM 60.1 °F - 55.9 °F 86% 30.15 in 7.0 mi East 3.5 mph - N/A   Scattered Clouds
7:53 AM 64.0 °F - 57.0 °F 78% 30.17 in 7.0 mi Calm Calm - N/A   Clear
8:53 AM 69.1 °F - 57.9 °F 68% 30.18 in 10.0 mi ESE 5.8 mph - N/A   Partly Cloudy
9:53 AM 71.1 °F - 59.0 °F 66% 30.17 in 10.0 mi East 3.5 mph - N/A   Overcast
10:53 AM 73.9 °F - 59.0 °F 59% 30.17 in 10.0 mi ESE 6.9 mph - N/A   Overcast
11:53 AM 75.9 °F - 59.0 °F 56% 30.15 in 10.0 mi East 8.1 mph 19.6 mph N/A   Mostly Cloudy
12:53 PM 79.0 °F - 59.0 °F 50% 30.14 in 10.0 mi Calm Calm - N/A   Clear
1:53 PM 80.1 °F 80.4 °F 57.0 °F 45% 30.11 in 10.0 mi SE 6.9 mph - N/A   Clear
2:53 PM 81.0 °F 81.0 °F 57.0 °F 44% 30.09 in 10.0 mi Calm Calm - N/A   Clear
3:53 PM 82.0 °F 82.0 °F 57.9 °F 44% 30.06 in 10.0 mi ESE 6.9 mph - N/A   Partly Cloudy
4:53 PM 81.0 °F 81.3 °F 59.0 °F 47% 30.05 in 10.0 mi ESE 3.5 mph - N/A   Clear
5:53 PM 82.0 °F 82.7 °F 61.0 °F 49% 30.04 in 10.0 mi East 6.9 mph - N/A   Partly Cloudy
6:53 PM 79.0 °F - 62.1 °F 56% 30.04 in 10.0 mi East 6.9 mph - N/A   Overcast
7:53 PM 78.1 °F - 62.1 °F 58% 30.04 in 10.0 mi SE 6.9 mph - N/A   Scattered Clouds
8:53 PM 75.9 °F - 62.1 °F 62% 30.04 in 10.0 mi ESE 6.9 mph - N/A   Clear
9:53 PM 73.9 °F - 62.1 °F 66% 30.04 in 10.0 mi ESE 6.9 mph - N/A   Partly Cloudy
10:53 PM 73.0 °F - 63.0 °F 71% 30.04 in 10.0 mi ESE 5.8 mph - N/A   Clear
11:53 PM 72.0 °F - 63.0 °F 73% 30.03 in 10.0 mi ESE 5.8 mph - N/A   Partly Cloudy